SCP
0 0 0 0 0 0 0 -0 0 0 0 0 0 0 0 0 0 0 0 -0 0 0 0 0 0 0 0 0 0 -0 -0 -0 -0 -0 -0 -0 -0 -0 -0 -0 -0 -0 -0 -0 -0 -0 -0 -0 -0
0 0 0 0 0 0 0 0 -0 0 0 0 0 0 -0 0 0 0 0 -0 0 0 0 0 0 0 0 0 0 0 0 0 -0 -0 -0 -0 -0 -0 -0 -0 -0 -0 -0 -0 -0 -0 -0 -0 -0
0 0 0 0 0 0 0 0 0 0 0 0 0 0 -0 -0 0 0 0 0 0 0 0 0 0 0 0 0 0 0 0 0 0 0 -0 -0 -0 -0 -0 -0 -0 -0 -0 -0 -0 -0 -0 -0 -0
0 0 0 0 0 0 0 0 0 0 0 0 0 0 0 0 0 0 0 0 0 0 0 0 0 0 0 0 0 0 0 -0 0 0 0 -0 -0 -0 -0 -0 -0 -0 -0 -0 -0 -0 -0 -0 -0
0 0 0 0 0 0 0 0 0 0 0 0 0 0 0 0 -0 -0 0 0 0 0 0 0 0 0 0 0 0 -0 -0 -0 -0 -0 -0 -0 -0 -0 -0 -0 -0 -0 -0 -0 -0 -0 -0 -0 -0
0 0 0 0 0 0 0 0 0 0 0 0 0 0 0 -0 -0 -0 -0 0 0 0 0 0 0 0 -0 0 0 -0 -0 -0 -0 -0 -0 -0 -0 -0 -0 -0 -0 -0 -0 -0 -0 -0 -0 -0 -0
0 0 0 0 0 0 0 0 0 0 0 0 0 0 0 -0 0 -0 -0 -0 -0 0 0 0 0 0 0 -0 -0 -0 -0 -0 -0 -0 -0 -0 -0 -0 -0 -0 -0 -0 -0 -0 -0 -0 -0 -0 -0
0 0 0 0 0 0 0 0 0 0 0 0 0 0 0 -0 0 -0 -0 -0 -0 0 0 0 0 0 0 0 -0 -0 -0 -0 -0 -0 -0 -0 -0 -0 -0 -0 -0 -0 -0 -0 -0 -0 -0 -0 -0
0 0 0 0 0 0 0 0 0 0 0 0 0 0 0 -0 -0 -0 -0 -0 -0 -0 -0 0 0 0 0 0 0 -0 -0 -0 -0 -0 -0 -0 -0 -0 -0 -0 -0 -0 -0 -0 -0 -0 -0 0 0
0 0 0 0 0 0 0 0 0 0 0 0 0 0 0 -0 -0 -0 -0 -0 -0 -0 -0 -0 -0 0 0 0 -0 0 0 0 0 -0 -0 0 -0 -0 -0 -0 -0 -0 -0 0 0 0 0 0 0
0 0 0 0 0 0 0 0 0 0 0 0 0 0 0 0 0 -0 -0 -0 -0 -0 -0 -0 -0 -0 -0 0 0 0 0 0 0 -0 -0 -0 0 0 0 0 0 0 0 0 0 0 0 0 0
0 0 0 0 0 0 0 0 0 0 0 0 0 0 0 0 0 0 -0 -0 -0 -0 -0 -0 -0 -0 -0 0 0 -0 -0 0 0 -0 -0 -0 0 0 0 0 0 0 0 0 0 0 0 0 0
0 0 0 0 0 0 0 0 0 0 0 0 0 0 0 0 0 0 0 0 0 -0 -0 -0 -0 -0 -0 -0 -0 -0 -0 -0 0 -0 -0 -0 -0 0 0 0 0 0 0 0 0 0 0 0 0
0 0 0 0 0 0 0 0 0 0 0 0 0 0 0 0 0 0 0 0 0 -0 -0 -0 -0 -0 -0 -0 -0 0 -0 -0 0 0 0 0 0 0 0 0 0 0 0 0 0 0 0 0 0
0 0 0 0 0 0 0 0 0 0 0 0 0 0 0 0 0 0 0 0 0 0 0 -0 -0 -0 0 0 0 0 0 0 0 0 0 0 0 0 0 0 0 0 0 0 0 0 0 0 0
0 0 0 0 0 0 0 0 0 0 0 0 0 0 0 0 0 0 0 0 0 0 0 0 0 0 0 0 0 0 0 0 0 0 0 0 0 0 0 0 0 0 0 0 0 0 0 0 0
0 0 0 0 0 0 0 0 0 0 0 0 0 0 0 0 0 -0 0 0 0 0 0 0 0 0 0 0 0 0 0 0 0 0 0 0 0 0 0 0 0 0 0 0 0 0 0 0 0
0 0 0 0 0 0 0 0 0 0 0 0 0 0 0 0 -0 0 0 0 0 0 0 0 0 0 0 0 0 0 0 0 0 0 0 0 0 0 0 0 0 0 0 0 0 0 0 0 0
0 0 0 0 0 0 0 0 0 0 0 0 0 0 0 0 0 0 0 0 0 0 0 0 0 0 0 0 0 0 0 0 0 0 0 0 0 0 0 0 0 0 0 0 0 0 0 0 0
0 0 0 0 0 0 0 0 0 0 0 0 0 0 0 0 0 0 0 0 0 0 0 0 0 0 0 0 0 0 0 0 0 0 0 0 0 0 0 0 0 0 0 0 0 0 0 0 0
0 0 0 0 0 0 0 0 0 0 0 0 0 0 0 0 0 0 0 0 0 0 0 0 0 0 0 0 0 0 0 0 0 0 0 0 0 0 0 0 0 0 0 0 0 0 0 0 0
0 0 0 0 0 0 0 0 0 0 0 0 0 0 0 0 0 0 0 0 0 0 0 0 0 0 0 0 0 0 0 0 0 0 0 0 0 0 0 0 0 0 0 0 0 0 0 0 0
0 0 0 0 0 0 0 0 -0 0 0 0 0 0 0 0 0 0 0 0 0 0 0 0 0 0 0 0 0 0 0 0 0 0 0 0 0 0 0 0 0 0 0 0 0 0 0 0 0
0 0 0 0 0 0 0 0 -0 0 0 0 0 0 0 0 0 0 0 0 0 0 0 0 0 0 0 0 0 0 0 0 0 0 0 0 0 0 0 0 0 0 0 0 0 0 0 0 0
0 0 0 0 0 0 0 0 0 0 0 0 0 0 0 0 0 0 0 0 0 0 0 0 0 0 0 0 0 0 0 0 0 0 0 0 0 0 0 0 0 0 0 0 0 0 0 0 0
0 0 0 0 0 0 0 0 0 0 0 -0 0 0 0 0 0 0 0 0 0 0 0 0 0 0 0 0 0 0 0 0 0 0 0 0 0 0 0 0 0 0 0 0 0 0 0 0 0
0 0 0 0 0 0 0 0 0 0 0 0 0 0 0 0 0 0 0 0 0 0 0 0 0 0 0 0 0 0 0 0 0 0 0 0 0 0 0 0 0 0 0 0 0 0 0 0 0
0 0 0 0 0 0 0 0 0 0 0 0 0 0 0 0 0 0 0 0 0 0 0 0 0 0 0 0 0 0 0 0 0 0 0 0 0 0 0 0 0 0 0 0 0 0 0 0 0
0 0 0 0 0 0 0 0 0 0 0 0 0 0 0 0 0 0 0 0 0 0 0 0 0 0 0 0 0 0 0 0 0 0 0 0 0 0 0 0 0 0 0 0 0 0 0 0 0
0 0 0 0 0 0 0 0 0 0 0 0 0 0 0 0 0 0 0 0 0 0 0 0 0 0 0 0 0 0 0 0 0 0 0 0 0 0 0 0 0 0 0 0 0 0 0 0 0
Wind_Speed_500mb
3 4 7 4 8 10 3 3 3 8 5 4 16 11 16 9 6 6 38 27 30 26 23 20 21 20 20 20 23 29 28 17 20 23 23 23 24 29 35 31 25 22 26 28 29 29 25 24 21
5 3 2 7 9 6 8 7 9 5 31 39 28 20 12 4 7 26 42 31 27 29 27 26 24 22 20 21 24 30 30 20 22 27 28 30 31 33 34 33 31 27 25 25 24 23 21 19 18
7 2 0 9 7 7 8 6 7 11 32 5 12 18 9 8 12 48 32 36 35 31 28 27 26 23 18 20 24 25 25 20 24 24 27 31 27 28 27 28 31 29 25 21 20 18 18 18 20
8 2 9 8 6 8 10 10 16 19 11 6 29 16 10 3 36 30 36 36 37 32 30 29 27 22 19 18 21 23 21 19 19 22 29 27 32 29 30 25 24 25 29 21 19 19 18 18 19
11 4 7 4 6 6 5 25 24 9 8 17 10 7 10 27 21 28 36 36 37 34 31 30 27 24 21 19 19 20 20 19 20 21 22 28 26 21 19 26 21 23 23 18 20 17 16 15 18
6 5 6 6 7 7 4 22 14 9 14 19 17 18 16 29 19 36 35 37 35 34 32 30 27 23 21 18 17 17 17 17 17 18 21 20 15 14 16 14 18 20 20 18 18 14 13 15 18
11 7 10 7 8 2 8 19 11 17 21 10 38 13 15 35 27 33 35 35 37 35 33 31 30 27 21 18 17 15 14 14 15 15 16 15 13 11 14 15 14 18 21 18 13 11 11 12 15
10 9 10 6 10 10 11 20 15 30 6 34 21 14 13 46 41 38 39 35 38 36 33 33 30 28 25 21 18 16 13 13 13 13 12 11 10 8 8 11 12 16 18 16 11 7 5 8 11
10 8 7 13 13 9 20 8 16 13 26 13 23 10 10 48 50 48 44 40 40 38 36 35 33 31 28 23 21 18 14 12 11 9 8 8 7 6 7 9 8 9 12 11 9 5 2 6 8
9 7 15 10 10 13 32 20 27 13 18 10 21 19 26 51 59 59 57 51 47 43 43 38 37 35 32 28 24 22 19 15 12 8 5 5 5 5 5 6 8 5 6 7 6 4 3 3 5
8 8 8 7 16 13 34 22 20 24 7 20 38 36 50 58 63 62 57 52 49 42 41 45 41 38 36 33 29 25 22 20 17 13 8 5 5 6 3 2 4 4 5 7 6 5 3 3 5
4 16 8 8 8 17 25 28 16 34 12 27 32 39 55 60 65 64 58 52 47 47 40 43 44 42 39 36 32 28 27 24 21 18 14 10 8 9 6 3 2 4 5 7 7 6 5 5 6
6 5 9 5 3 15 26 19 15 38 13 17 34 52 54 55 57 57 51 45 45 45 43 42 47 48 44 42 38 35 32 29 26 23 20 18 14 12 8 6 4 6 6 8 10 10 8 7 8
13 8 6 2 3 10 11 8 13 26 21 25 41 51 52 53 51 58 59 51 52 46 45 42 50 50 48 47 43 40 38 34 32 31 27 25 21 17 13 11 8 7 9 11 13 14 13 12 11
14 8 3 2 3 5 12 3 11 16 24 35 48 50 53 50 48 54 52 54 51 47 46 48 41 51 51 48 43 41 39 39 38 36 34 31 27 22 20 18 16 13 14 15 16 16 16 16 16
13 10 7 5 10 2 8 16 8 19 33 39 51 55 56 52 52 50 52 51 53 50 50 51 48 47 50 50 47 45 41 42 42 39 39 37 36 31 27 27 23 22 22 21 21 20 20 20 21
10 10 6 4 3 5 6 13 9 22 36 41 53 58 59 55 55 54 53 52 52 51 53 59 57 52 52 55 52 51 46 44 43 40 40 43 42 41 40 34 32 31 30 28 27 26 24 25 26
8 11 7 8 7 1 7 14 7 9 35 47 50 58 60 58 59 52 51 51 53 53 54 55 56 54 50 52 60 57 55 54 52 49 50 47 48 44 43 43 39 40 38 35 33 31 30 30 31
11 11 11 5 1 6 12 13 16 15 14 37 49 53 56 61 53 55 55 55 55 57 60 60 58 56 54 55 57 71 69 64 62 59 56 53 51 49 47 45 42 44 44 39 37 36 36 37 36
6 10 9 4 4 5 2 21 18 15 22 41 58 56 61 60 61 56 57 61 64 62 61 63 62 55 53 56 55 58 62 71 67 65 62 56 56 55 55 52 48 45 47 47 43 42 42 40 39
8 12 10 10 7 3 5 14 11 14 35 48 52 56 58 66 66 55 50 52 54 60 62 64 63 59 55 54 53 55 57 59 64 70 71 69 66 61 59 58 55 50 45 40 40 40 41 40 40
10 10 11 15 11 8 4 10 10 9 18 16 53 71 76 79 76 67 55 48 48 54 58 56 63 64 62 61 62 59 61 64 59 58 58 59 62 68 68 65 61 57 54 48 44 45 48 50 50
12 9 12 7 9 9 1 2 13 1 14 19 46 73 69 71 73 63 54 52 49 49 58 54 55 58 64 67 69 67 68 66 63 59 50 45 47 53 57 64 68 69 64 57 56 53 51 50 54
19 14 14 8 5 4 12 12 10 9 16 15 12 28 42 36 35 47 48 47 47 47 54 57 57 58 62 67 73 75 76 75 75 72 61 50 49 53 55 54 64 66 68 67 63 58 60 56 60
7 13 5 3 4 9 3 3 15 16 19 12 11 18 16 19 21 26 38 37 36 39 45 51 54 54 58 63 68 71 75 76 80 77 69 58 57 56 56 49 54 57 58 60 61 62 66 57 71
12 16 11 12 6 7 2 14 12 12 24 32 31 15 6 10 13 17 23 26 29 32 36 40 46 50 52 57 62 66 71 73 76 74 68 62 59 55 54 53 48 53 53 54 54 56 55 54 55
12 12 15 14 4 5 9 12 21 9 13 9 13 14 11 11 13 16 18 21 25 31 37 39 42 45 50 53 54 58 64 72 74 67 59 54 53 51 51 49 49 53 52 46 46 50 47 47 50
17 20 8 4 8 7 9 10 11 8 11 9 11 16 16 17 16 16 16 16 20 22 23 25 26 27 28 30 31 32 33 42 53 52 51 52 55 51 47 50 49 49 48 49 48 45 44 50 54
9 8 7 11 11 10 2 11 12 11 4 4 17 16 17 18 16 13 12 13 15 16 19 21 22 23 24 27 28 27 25 26 33 39 41 48 50 52 46 49 47 41 52 47 39 45 46 49 44
4 13 12 12 11 2 6 11 5 9 3 18 19 13 10 11 12 9 8 10 13 17 20 22 24 27 28 28 29 28 28 24 24 30 37 40 42 45 47 49 44 42 34 39 46 53 39 39 41
Wind_Direction_500mb
234 310 357 24 51 64 348 259 306 131 75 154 131 140 139 83 144 206 143 156 157 159 150 146 141 121 106 101 99 104 95 103 89 92 102 112 124 119 109 103 97 108 106 104 107 103 97 87 77
216 293 45 84 85 71 276 275 176 197 133 115 95 100 73 88 114 145 147 148 159 160 152 154 145 132 113 105 103 116 116 108 87 92 91 96 104 108 112 113 111 105 116 103 106 100 90 77 68
229 190 73 92 110 161 204 210 191 132 148 145 109 80 89 139 157 151 152 149 161 161 158 158 146 141 118 109 112 121 126 115 101 87 99 92 96 103 105 113 116 117 112 120 104 101 88 79 66
207 185 59 87 200 245 191 190 167 144 133 124 122 71 86 110 154 153 154 154 164 161 162 157 150 145 130 118 116 116 117 111 102 98 98 94 91 94 89 83 99 114 115 110 111 95 89 76 61
190 146 68 75 265 257 238 169 167 134 109 123 130 137 95 142 161 162 160 164 170 167 167 162 159 148 143 133 123 120 115 112 109 101 105 104 110 100 105 99 103 107 110 114 106 99 89 75 57
142 99 80 206 257 306 140 165 164 137 141 138 109 116 139 165 176 171 170 168 175 175 171 167 164 157 150 145 135 130 121 117 115 100 101 104 104 87 92 110 99 112 120 123 111 104 88 66 55
133 104 195 175 214 328 169 194 178 159 144 170 144 126 166 189 189 181 176 173 178 180 178 175 172 170 165 157 152 142 131 123 116 104 102 100 98 88 78 88 115 118 128 126 117 98 73 61 54
128 90 129 214 174 225 183 163 197 167 156 153 161 167 186 187 185 180 176 178 184 185 186 184 182 182 177 173 169 160 148 133 124 114 106 100 94 91 77 68 110 122 128 128 125 101 50 40 44
124 71 177 192 147 228 163 148 175 172 155 176 186 205 222 178 177 179 180 186 188 188 192 194 191 189 188 184 183 178 171 165 154 134 117 105 97 92 80 75 91 132 137 141 142 136 360 6 29
131 130 213 215 195 195 177 173 168 164 157 179 183 191 178 177 177 184 187 191 196 195 195 200 200 198 197 194 195 195 188 191 192 183 161 135 124 116 94 90 82 110 168 173 174 191 257 337 358
196 185 192 263 249 222 171 172 174 152 237 198 189 177 176 179 183 192 195 202 202 201 203 204 204 206 205 205 203 207 202 202 211 212 207 189 184 162 127 103 115 147 192 205 209 216 249 281 331
212 236 243 290 284 180 169 165 174 175 194 216 208 198 180 187 190 198 202 204 209 209 212 210 209 214 212 213 213 215 216 214 219 226 227 222 204 194 185 180 198 194 218 228 227 233 267 278 304
178 238 218 284 268 193 159 179 182 199 229 219 198 186 190 192 199 203 210 209 208 215 219 216 217 215 217 220 217 220 223 224 227 231 239 237 225 208 211 213 214 220 237 246 246 245 258 263 274
210 211 211 181 120 139 140 164 174 208 217 197 188 194 199 199 201 205 211 212 216 220 224 221 225 222 222 223 225 225 229 229 229 234 239 243 236 223 228 231 237 238 239 248 251 249 256 257 262
142 140 313 192 150 91 130 63 222 191 200 196 194 199 203 207 209 212 213 216 217 224 228 232 232 224 225 223 228 230 230 235 235 238 241 245 246 237 237 241 245 244 240 246 254 256 255 258 260
124 86 165 271 152 160 142 241 245 202 196 196 200 205 210 211 217 219 221 225 226 228 230 235 239 241 230 223 229 233 232 236 238 241 244 242 246 250 245 244 245 251 253 250 250 255 258 258 260
16 156 180 294 246 131 143 246 218 203 202 204 206 213 217 220 224 224 226 228 231 235 235 237 241 245 239 226 227 231 233 237 238 241 236 242 246 249 255 252 249 250 254 257 259 259 260 262 264
154 127 145 200 223 341 180 252 261 213 208 212 215 221 225 226 230 232 230 231 234 235 237 239 243 244 240 233 232 234 235 238 237 239 240 242 246 247 249 253 251 250 253 257 261 265 267 267 268
160 159 162 169 73 159 221 259 249 213 217 226 227 224 225 232 241 241 240 239 238 236 236 236 237 238 237 233 232 231 235 237 241 240 242 244 248 250 250 254 258 257 259 260 262 264 266 270 270
143 166 171 71 72 165 306 263 253 229 234 225 228 227 229 236 242 244 247 244 240 239 239 237 236 237 239 241 242 244 240 238 241 244 246 246 247 251 254 252 254 256 256 258 259 261 263 266 271
179 168 184 162 140 114 6 283 253 248 238 242 242 240 240 241 243 240 242 244 240 239 241 240 238 240 241 244 247 247 249 241 240 242 244 247 250 252 254 257 258 259 264 269 264 261 264 267 266
189 198 158 141 131 190 74 278 275 260 261 231 244 240 239 238 244 243 245 245 244 245 246 247 243 242 243 244 245 248 250 254 259 255 255 252 250 255 256 258 258 258 259 258 260 257 261 266 265
215 133 133 106 99 99 163 223 265 335 274 248 237 239 243 246 249 249 245 242 244 246 244 247 249 244 243 243 247 249 251 258 262 261 259 259 257 253 255 259 260 259 260 258 258 259 261 268 267
145 91 50 60 115 236 199 166 262 193 214 255 250 253 252 255 254 236 233 239 243 244 238 240 243 244 244 243 245 250 254 256 258 258 258 260 262 258 254 257 257 258 259 258 257 263 260 264 265
152 107 28 1 321 222 119 184 246 240 240 228 265 298 275 232 228 223 227 236 240 238 234 233 237 240 244 247 249 252 254 256 258 260 260 259 258 257 258 262 260 259 260 260 258 261 261 265 267
178 150 149 179 217 220 118 234 242 230 259 263 257 270 225 174 186 204 214 224 231 234 235 236 240 243 246 249 252 256 259 259 260 261 260 256 251 261 263 266 257 260 258 258 258 260 266 267 268
189 186 154 105 39 39 217 297 300 282 264 244 205 199 184 176 176 183 202 218 233 242 246 251 256 261 262 262 261 257 255 256 257 257 261 256 253 257 263 265 252 255 257 253 254 257 259 262 265
179 154 117 55 138 255 281 283 236 277 243 174 201 201 200 199 199 206 219 237 249 253 256 258 257 259 265 270 271 266 258 253 253 252 251 253 254 250 260 263 257 255 252 254 250 254 258 257 262
137 178 68 116 153 173 222 263 223 261 274 162 219 199 197 199 198 217 243 264 276 275 269 270 274 273 271 271 272 275 272 258 250 247 240 244 248 250 257 259 258 251 257 255 250 263 257 275 265
208 168 156 184 203 163 135 273 35 321 255 117 110 131 153 169 190 213 244 266 277 276 275 274 272 271 275 280 283 279 269 262 252 243 237 241 242 253 252 253 252 245 256 263 259 260 249 260 260
Wind_Speed_850mb
3 4 7 4 8 10 3 3 3 8 5 4 16 11 16 9 6 6 38 27 30 26 23 20 21 20 20 20 23 29 28 17 20 23 23 23 24 29 35 31 25 22 26 28 29 29 25 24 21
5 3 2 7 9 6 8 7 9 5 31 39 28 20 12 4 7 26 42 31 27 29 27 26 24 22 20 21 24 30 30 20 22 27 28 30 31 33 34 33 31 27 25 25 24 23 21 19 18
7 2 0 9 7 7 8 6 7 11 32 5 12 18 9 8 12 48 32 36 35 31 28 27 26 23 18 20 24 25 25 20 24 24 27 31 27 28 27 28 31 29 25 21 20 18 18 18 20
8 2 9 8 6 8 10 10 16 19 11 6 29 16 10 3 36 30 36 36 37 32 30 29 27 22 19 18 21 23 21 19 19 22 29 27 32 29 30 25 24 25 29 21 19 19 18 18 19
11 4 7 4 6 6 5 25 24 9 8 17 10 7 10 27 21 28 36 36 37 34 31 30 27 24 21 19 19 20 20 19 20 21 22 28 26 21 19 26 21 23 23 18 20 17 16 15 18
6 5 6 6 7 7 4 22 14 9 14 19 17 18 16 29 19 36 35 37 35 34 32 30 27 23 21 18 17 17 17 17 17 18 21 20 15 14 16 14 18 20 20 18 18 14 13 15 18
11 7 10 7 8 2 8 19 11 17 21 10 38 13 15 35 27 33 35 35 37 35 33 31 30 27 21 18 17 15 14 14 15 15 16 15 13 11 14 15 14 18 21 18 13 11 11 12 15
10 9 10 6 10 10 11 20 15 30 6 34 21 14 13 46 41 38 39 35 38 36 33 33 30 28 25 21 18 16 13 13 13 13 12 11 10 8 8 11 12 16 18 16 11 7 5 8 11
10 8 7 13 13 9 20 8 16 13 26 13 23 10 10 48 50 48 44 40 40 38 36 35 33 31 28 23 21 18 14 12 11 9 8 8 7 6 7 9 8 9 12 11 9 5 2 6 8
9 7 15 10 10 13 32 20 27 13 18 10 21 19 26 51 59 59 57 51 47 43 43 38 37 35 32 28 24 22 19 15 12 8 5 5 5 5 5 6 8 5 6 7 6 4 3 3 5
8 8 8 7 16 13 34 22 20 24 7 20 38 36 50 58 63 62 57 52 49 42 41 45 41 38 36 33 29 25 22 20 17 13 8 5 5 6 3 2 4 4 5 7 6 5 3 3 5
4 16 8 8 8 17 25 28 16 34 12 27 32 39 55 60 65 64 58 52 47 47 40 43 44 42 39 36 32 28 27 24 21 18 14 10 8 9 6 3 2 4 5 7 7 6 5 5 6
6 5 9 5 3 15 26 19 15 38 13 17 34 52 54 55 57 57 51 45 45 45 43 42 47 48 44 42 38 35 32 29 26 23 20 18 14 12 8 6 4 6 6 8 10 10 8 7 8
13 8 6 2 3 10 11 8 13 26 21 25 41 51 52 53 51 58 59 51 52 46 45 42 50 50 48 47 43 40 38 34 32 31 27 25 21 17 13 11 8 7 9 11 13 14 13 12 11
14 8 3 2 3 5 12 3 11 16 24 35 48 50 53 50 48 54 52 54 51 47 46 48 41 51 51 48 43 41 39 39 38 36 34 31 27 22 20 18 16 13 14 15 16 16 16 16 16
13 10 7 5 10 2 8 16 8 19 33 39 51 55 56 52 52 50 52 51 53 50 50 51 48 47 50 50 47 45 41 42 42 39 39 37 36 31 27 27 23 22 22 21 21 20 20 20 21
10 10 6 4 3 5 6 13 9 22 36 41 53 58 59 55 55 54 53 52 52 51 53 59 57 52 52 55 52 51 46 44 43 40 40 43 42 41 40 34 32 31 30 28 27 26 24 25 26
8 11 7 8 7 1 7 14 7 9 35 47 50 58 60 58 59 52 51 51 53 53 54 55 56 54 50 52 60 57 55 54 52 49 50 47 48 44 43 43 39 40 38 35 33 31 30 30 31
11 11 11 5 1 6 12 13 16 15 14 37 49 53 56 61 53 55 55 55 55 57 60 60 58 56 54 55 57 71 69 64 62 59 56 53 51 49 47 45 42 44 44 39 37 36 36 37 36
6 10 9 4 4 5 2 21 18 15 22 41 58 56 61 60 61 56 57 61 64 62 61 63 62 55 53 56 55 58 62 71 67 65 62 56 56 55 55 52 48 45 47 47 43 42 42 40 39
8 12 10 10 7 3 5 14 11 14 35 48 52 56 58 66 66 55 50 52 54 60 62 64 63 59 55 54 53 55 57 59 64 70 71 69 66 61 59 58 55 50 45 40 40 40 41 40 40
10 10 11 15 11 8 4 10 10 9 18 16 53 71 76 79 76 67 55 48 48 54 58 56 63 64 62 61 62 59 61 64 59 58 58 59 62 68 68 65 61 57 54 48 44 45 48 50 50
12 9 12 7 9 9 1 2 13 1 14 19 46 73 69 71 73 63 54 52 49 49 58 54 55 58 64 67 69 67 68 66 63 59 50 45 47 53 57 64 68 69 64 57 56 53 51 50 54
19 14 14 8 5 4 12 12 10 9 16 15 12 28 42 36 35 47 48 47 47 47 54 57 57 58 62 67 73 75 76 75 75 72 61 50 49 53 55 54 64 66 68 67 63 58 60 56 60
7 13 5 3 4 9 3 3 15 16 19 12 11 18 16 19 21 26 38 37 36 39 45 51 54 54 58 63 68 71 75 76 80 77 69 58 57 56 56 49 54 57 58 60 61 62 66 57 71
12 16 11 12 6 7 2 14 12 12 24 32 31 15 6 10 13 17 23 26 29 32 36 40 46 50 52 57 62 66 71 73 76 74 68 62 59 55 54 53 48 53 53 54 54 56 55 54 55
12 12 15 14 4 5 9 12 21 9 13 9 13 14 11 11 13 16 18 21 25 31 37 39 42 45 50 53 54 58 64 72 74 67 59 54 53 51 51 49 49 53 52 46 46 50 47 47 50
17 20 8 4 8 7 9 10 11 8 11 9 11 16 16 17 16 16 16 16 20 22 23 25 26 27 28 30 31 32 33 42 53 52 51 52 55 51 47 50 49 49 48 49 48 45 44 50 54
9 8 7 11 11 10 2 11 12 11 4 4 17 16 17 18 16 13 12 13 15 16 19 21 22 23 24 27 28 27 25 26 33 39 41 48 50 52 46 49 47 41 52 47 39 45 46 49 44
4 13 12 12 11 2 6 11 5 9 3 18 19 13 10 11 12 9 8 10 13 17 20 22 24 27 28 28 29 28 28 24 24 30 37 40 42 45 47 49 44 42 34 39 46 53 39 39 41
Wind_Direction_850mb
234 310 357 24 51 64 348 259 306 131 75 154 131 140 139 83 144 206 143 156 157 159 150 146 141 121 106 101 99 104 95 103 89 92 102 112 124 119 109 103 97 108 106 104 107 103 97 87 77
216 293 45 84 85 71 276 275 176 197 133 115 95 100 73 88 114 145 147 148 159 160 152 154 145 132 113 105 103 116 116 108 87 92 91 96 104 108 112 113 111 105 116 103 106 100 90 77 68
229 190 73 92 110 161 204 210 191 132 148 145 109 80 89 139 157 151 152 149 161 161 158 158 146 141 118 109 112 121 126 115 101 87 99 92 96 103 105 113 116 117 112 120 104 101 88 79 66
207 185 59 87 200 245 191 190 167 144 133 124 122 71 86 110 154 153 154 154 164 161 162 157 150 145 130 118 116 116 117 111 102 98 98 94 91 94 89 83 99 114 115 110 111 95 89 76 61
190 146 68 75 265 257 238 169 167 134 109 123 130 137 95 142 161 162 160 164 170 167 167 162 159 148 143 133 123 120 115 112 109 101 105 104 110 100 105 99 103 107 110 114 106 99 89 75 57
142 99 80 206 257 306 140 165 164 137 141 138 109 116 139 165 176 171 170 168 175 175 171 167 164 157 150 145 135 130 121 117 115 100 101 104 104 87 92 110 99 112 120 123 111 104 88 66 55
133 104 195 175 214 328 169 194 178 159 144 170 144 126 166 189 189 181 176 173 178 180 178 175 172 170 165 157 152 142 131 123 116 104 102 100 98 88 78 88 115 118 128 126 117 98 73 61 54
128 90 129 214 174 225 183 163 197 167 156 153 161 167 186 187 185 180 176 178 184 185 186 184 182 182 177 173 169 160 148 133 124 114 106 100 94 91 77 68 110 122 128 128 125 101 50 40 44
124 71 177 192 147 228 163 148 175 172 155 176 186 205 222 178 177 179 180 186 188 188 192 194 191 189 188 184 183 178 171 165 154 134 117 105 97 92 80 75 91 132 137 141 142 136 360 6 29
131 130 213 215 195 195 177 173 168 164 157 179 183 191 178 177 177 184 187 191 196 195 195 200 200 198 197 194 195 195 188 191 192 183 161 135 124 116 94 90 82 110 168 173 174 191 257 337 358
196 185 192 263 249 222 171 172 174 152 237 198 189 177 176 179 183 192 195 202 202 201 203 204 204 206 205 205 203 207 202 202 211 212 207 189 184 162 127 103 115 147 192 205 209 216 249 281 331
212 236 243 290 284 180 169 165 174 175 194 216 208 198 180 187 190 198 202 204 209 209 212 210 209 214 212 213 213 215 216 214 219 226 227 222 204 194 185 180 198 194 218 228 227 233 267 278 304
178 238 218 284 268 193 159 179 182 199 229 219 198 186 190 192 199 203 210 209 208 215 219 216 217 215 217 220 217 220 223 224 227 231 239 237 225 208 211 213 214 220 237 246 246 245 258 263 274
210 211 211 181 120 139 140 164 174 208 217 197 188 194 199 199 201 205 211 212 216 220 224 221 225 222 222 223 225 225 229 229 229 234 239 243 236 223 228 231 237 238 239 248 251 249 256 257 262
142 140 313 192 150 91 130 63 222 191 200 196 194 199 203 207 209 212 213 216 217 224 228 232 232 224 225 223 228 230 230 235 235 238 241 245 246 237 237 241 245 244 240 246 254 256 255 258 260
124 86 165 271 152 160 142 241 245 202 196 196 200 205 210 211 217 219 221 225 226 228 230 235 239 241 230 223 229 233 232 236 238 241 244 242 246 250 245 244 245 251 253 250 250 255 258 258 260
16 156 180 294 246 131 143 246 218 203 202 204 206 213 217 220 224 224 226 228 231 235 235 237 241 245 239 226 227 231 233 237 238 241 236 242 246 249 255 252 249 250 254 257 259 259 260 262 264
154 127 145 200 223 341 180 252 261 213 208 212 215 221 225 226 230 232 230 231 234 235 237 239 243 244 240 233 232 234 235 238 237 239 240 242 246 247 249 253 251 250 253 257 261 265 267 267 268
160 159 162 169 73 159 221 259 249 213 217 226 227 224 225 232 241 241 240 239 238 236 236 236 237 238 237 233 232 231 235 237 241 240 242 244 248 250 250 254 258 257 259 260 262 264 266 270 270
143 166 171 71 72 165 306 263 253 229 234 225 228 227 229 236 242 244 247 244 240 239 239 237 236 237 239 241 242 244 240 238 241 244 246 246 247 251 254 252 254 256 256 258 259 261 263 266 271
179 168 184 162 140 114 6 283 253 248 238 242 242 240 240 241 243 240 242 244 240 239 241 240 238 240 241 244 247 247 249 241 240 242 244 247 250 252 254 257 258 259 264 269 264 261 264 267 266
189 198 158 141 131 190 74 278 275 260 261 231 244 240 239 238 244 243 245 245 244 245 246 247 243 242 243 244 245 248 250 254 259 255 255 252 250 255 256 258 258 258 259 258 260 257 261 266 265
215 133 133 106 99 99 163 223 265 335 274 248 237 239 243 246 249 249 245 242 244 246 244 247 249 244 243 243 247 249 251 258 262 261 259 259 257 253 255 259 260 259 260 258 258 259 261 268 267
145 91 50 60 115 236 199 166 262 193 214 255 250 253 252 255 254 236 233 239 243 244 238 240 243 244 244 243 245 250 254 256 258 258 258 260 262 258 254 257 257 258 259 258 257 263 260 264 265
152 107 28 1 321 222 119 184 246 240 240 228 265 298 275 232 228 223 227 236 240 238 234 233 237 240 244 247 249 252 254 256 258 260 260 259 258 257 258 262 260 259 260 260 258 261 261 265 267
178 150 149 179 217 220 118 234 242 230 259 263 257 270 225 174 186 204 214 224 231 234 235 236 240 243 246 249 252 256 259 259 260 261 260 256 251 261 263 266 257 260 258 258 258 260 266 267 268
189 186 154 105 39 39 217 297 300 282 264 244 205 199 184 176 176 183 202 218 233 242 246 251 256 261 262 262 261 257 255 256 257 257 261 256 253 257 263 265 252 255 257 253 254 257 259 262 265
179 154 117 55 138 255 281 283 236 277 243 174 201 201 200 199 199 206 219 237 249 253 256 258 257 259 265 270 271 266 258 253 253 252 251 253 254 250 260 263 257 255 252 254 250 254 258 257 262
137 178 68 116 153 173 222 263 223 261 274 162 219 199 197 199 198 217 243 264 276 275 269 270 274 273 271 271 272 275 272 258 250 247 240 244 248 250 257 259 258 251 257 255 250 263 257 275 265
208 168 156 184 203 163 135 273 35 321 255 117 110 131 153 169 190 213 244 266 277 276 275 274 272 271 275 280 283 279 269 262 252 243 237 241 242 253 252 253 252 245 256 263 259 260 249 260 260